Location: Mouss�
(47.9236°N, 1.2701°W)
Time: 23:51:18
(UTC+00:00)

CSL-04 DEB - Pass Details

Date: 03 March 2021
Orbit: 546 x 627 km, 98.8° (Epoch: 14 April)

Event Time Altitude Azimuth Distance (km) Brightness Sun altitude
Rises 18:12:27 0° 17° (NNE) 2,731 7.6 -4.1°
Reaches altitude 10° 18:14:35 10° 21° (NNE) 1,837 6.7 -4.5°
Maximum altitude 18:18:31 64° 103° (ESE) 622 4.4 -5.1°
Drops below altitude 10° 18:22:29 10° 185° (S) 1,854 7.1 -5.8°
Sets 18:24:39 0° 189° (S) 2,758 8.1 -6.1°
